logo
Rechercher aéroport 
image banner adimage banner adimage banner ad
image banner ad

SBMA - Joao Correa Da Rocha

Situé à Maraba, Brazil

ICAO - SBMA, IATA - MAB

Données fournies par Airmate  

Information générale

Coordonnées: S5°22'5" W49°8'17"
Élévation : 357 feet MSL.
Variation magnétique : -20.713747341° East
Voir autres Aéroports à Pará

Données opérationnelles

Special qualification required
Heure actuelle UTC:
Heure actuelle locale:
Météo
METAR: SBMA 232000Z 16005KT 9999 FEW025 35/16 Q1012
TAF: TAF SBMA 231540Z 2318/2406 27010KT CAVOK TX38/2318Z TN24/2406Z BECMG 2320/2322 07006KT BECMG 2403/2405 34005KT RMK PGB
Voir NOTAMs / SUP AIP / TFR affectant cet aéroport [VIEW]
Fréquences de communication: [VIEW]

Pistes:

Identifiant RWYQFULongueur (ft)Largeur (ft)SurfaceLDA (ft)
256562148ASPH
076562148ASPH

Coordonnées de l'aéroport

Adresse: Maraba Brazil

Vue satellite de SBMA